Weather in Selikhovy Dvory

Russia / Kursk Oblast     51°34′19″N   36°04′31″E
temp.,
°C
wind,
m/s
gust,
m/s
humid.,
%
clouds,
%
prec.,
mm/h
press.,
hPa
HPBL,
m
5 august, thu
thu500:00+16ese356244 0.0 101872
03:00+15se346353 0.0 101859
06:00+16sse4860100 0.0 1017147
09:00+20sse4853100 0.0 1016314
12:00+23s3747100 0.0 1016331
15:00+27sw4739100 0.0 10141692
18:00+26s4644100 0.0 1013368
21:00+22se335097 0.0 101330
6 august, fri
fri600:00+19se4115352 0.0 1012179
03:00+19sse395531 0.0 1012150
06:00+17sse4959100 0.0 1011164
09:00+25sse5840100 0.0 1010464
12:00+30sse683785 0.0 10081749
15:00+33s68275 0.0 10063010
18:00+33ssw482947 0.0 1005586
21:00+23ese6116886 0.3 1007210
7 august, sat
sat700:00+21se5107598 0.5 1007166
03:00+21se3477100 1.1 100770
06:00+19sse51478100 1.1 1008330
09:00+23se51366100 1.4 1007431
12:00+24sse595696 1.6 1008637
15:00+26sse4656100 3.1 1008700
18:00+26nne2259100 0.1 100734
21:00+22ene2371100 0.1 100926
8 august, sun
sun800:00+19nw3588100 0.1 1010111
03:00+19nnw51195100 1.3 1011310
06:00+18nnw389696 1.7 1013295
09:00+22n57763 1.9 1013514
12:00+26n56560 0.6 1013857
15:00+28nne44462 0.6 10131485
18:00+27n44480 0.0 10131090
21:00+21n49560 0.0 1015162
9 august, mon
mon900:00+19nne35593 0.0 101671
03:00+17n36654 0.0 1016100
06:00+16nne34715 0.0 101672
09:00+22nne45492 0.0 1016478
12:00+27n44330 0.0 10161214
15:00+29n33295 0.0 10151650
18:00+27nnw34380 0.0 1015506
21:00+20nw335717 0.0 101639